Regional Weather Roundup
Issued by NWS

Home | Current Version | Previous Version | Text Only | Print | Product List | Glossary Off
Versions: 1 2 3 4 5 6 7 8 9 10 11 12 13 14 15 16 17 18 19 20 21 22 23 24 25 26 27 28 29 30 31 32 33 34 35 36 37 38 39 40 41 42 43 44 45 46 47 48 49 50

000
ASUS43 KMPX 021201
RWRMN
WEATHER ROUNDUP FOR MINNESOTA
NATIONAL WEATHER SERVICE TWIN CITIES/CHANHASSEN MN
600 AM CST MON MAR 02 2015


NOTE: "FAIR" INDICATES FEW OR NO CLOUDS BELOW 12,000 FEET WITH NO
SIGNIFICANT WEATHER AND/OR OBSTRUCTIONS TO VISIBILITY. N/A MEANS
CURRENT SKY AND/OR WEATHER CONDITIONS ARE NOT AVAILABLE.

MNZ060>063-068>070-021300-
   Twin Cities Metro

CITY           SKY/WX    TMP DP  RH WIND       PRES   REMARKS
TWIN CITIES    MOCLDY    10   5  80 CALM      30.46F
6HR MIN TEMP:  10; 6HR MAX TEMP:  19;

ST PAUL        PTCLDY     9   5  84 CALM      30.48S
CRYSTAL        MOCLDY     7   3  84 CALM      30.44F
BLAINE         PTCLDY     5   3  92 CALM      30.44F
EDEN PRAIRIE   MOCLDY     7   2  80 SW6       30.45S WCI  -3
6HR MIN TEMP:   6; 6HR MAX TEMP:  19;

SOUTH ST PAUL  PTCLDY     8   4  83 CALM      30.46F
LAKE ELMO      FAIR       5   3  92 CALM      30.45F
$$
MNZ001>005-007-008-013>017-022>024-027-028-021300-
   Northwest Minnesota

CITY           SKY/WX    TMP DP  RH WIND       PRES   REMARKS
BEMIDJI        MOCLDY    -3  -6  84 CALM      30.32S
HALLOCK        PTCLDY    -6  -9  84 SE9       30.31S WCI -22
ROSEAU         PTCLDY    -6 -11  77 S5        30.31S WCI -17
WARROAD        FAIR      -2  -6  84 SW6       30.31R WCI -14
THIEF RVR FALL MOCLDY    -2  -2 100 CALM      30.32F
CROOKSTON      PTCLDY    -2  -6  84 S7        30.36S WCI -16
FOSSTON        MOCLDY    -6  -9  84 S7        30.33F WCI -20
DETROIT LAKES  MOCLDY     1  -2  85 S3        30.35F
MOORHEAD       PTCLDY     1   0  92 SE6       30.38F WCI -10
PARK RAPIDS    MOCLDY    -4 -10  75 CALM      30.33F
MAHNOMEN       FAIR      -1  -5  84 S8        30.35S WCI -16
$$
MNZ006-009>011-018-025>026-021300-
   North Central Minnesota

CITY           SKY/WX    TMP DP  RH WIND       PRES   REMARKS
BAUDETTE       PTCLDY    -4 -10  75 SW5       30.30R WCI -15
FLAG ISLAND    PTCLDY    -9 -15  77 S7        30.29R WCI -24
INTL FALLS     MOCLDY   -12 -16  82 SW6       30.30R WCI -26
6HR MIN TEMP: -14; 6HR MAX TEMP:  10;

WASKISH        MOCLDY    -2  -6  84 CALM      30.32R
BIG FORK       PTCLDY    -9 -15  77 CALM      30.32R
LONGVILLE      PTCLDY    -8 -11  84 SW3       30.36R
GRAND RAPIDS   PTCLDY    -2  -8  78 CALM      30.31S
CRANE LAKE     PTCLDY    -9 -13  84 CALM      30.35R
ORR            PTCLDY    -2  -8  78 CALM      30.28S
COOK           PTCLDY    -6  -8  92 CALM      30.31S
WALKER         FAIR       1  -1  89 SW5       30.34R WCI  -9
$$
MNZ012-019>021-037-021300-
   Northeast Minnesota

CITY           SKY/WX    TMP DP  RH WIND       PRES   REMARKS
DULUTH         PTCLDY     5   1  83 W7        30.32R WCI  -7
6HR MIN TEMP:   4; 6HR MAX TEMP:  12;

ELY            CLEAR      1   0  92 SW3       30.31R
HIBBING        PTCLDY    -6 -11  79 CALM      30.32R
EVELETH        FLURRIES  -4  -8  84 CALM      30.34R
DULUTH HARBOR  FAIR       7   1  78 CALM      30.41S
SILVER BAY     CLEAR      9   3  78 S5        30.32R WCI   0
GRAND MARAIS     N/A     12   3  67 NW21G33   30.27F WCI  -7
G MARAIS ARPRT CLEAR      3  -2  78 W6        30.25R WCI  -8
$$
MNZ029>031-032-039>041-046>048-054>057-064-021300-
   West Central Minnesota

CITY           SKY/WX    TMP DP  RH WIND       PRES   REMARKS
FERGUS FALLS   FAIR       3   0  85 SE5       30.42F WCI  -6
MORRIS         MOCLDY     3   0  85 SW7       30.40S WCI  -9
ALEXANDRIA     MOCLDY     1  -2  87 SW5       30.37F WCI  -9
ELBOW LAKE     FAIR       0  -4  85 SE7       30.39R WCI -13
WADENA         MOCLDY    -2  -6  84 CALM      30.36S
APPLETON       MOCLDY     3   0  85 CALM      30.43F
BENSON         MOCLDY     1  -2  85 CALM      30.42S
ORTONVILLE     MOCLDY     5  -2  72 S5        30.41F WCI  -4
MADISON        MOCLDY     3   0  85 SW7       30.44F WCI  -9
WILLMAR        FAIR       1  -2  85 CALM      30.44R
$$
MNZ033>034-036-042>043-049>051-058-059-021300-
   Central Minnesota

CITY           SKY/WX    TMP DP  RH WIND       PRES   REMARKS
ST CLOUD       MOCLDY     5   2  87 CALM      30.42F
6HR MIN TEMP:   2; 6HR MAX TEMP:  14;

SAUK CENTRE    FAIR       2  -1  88 CALM      30.39F
PAYNESVILLE    PTCLDY     0  -2  92 CALM      30.43S
PINE RIVER     PTCLDY    -8 -11  84 CALM      30.39S
BRAINERD       PTCLDY    -1  -4  87 CALM      30.37F
STAPLES        PTCLDY    -4  -8  84 CALM      30.37S
LONG PRAIRIE   FAIR       1  -2  85 CALM      30.39F
LITTLE FALLS   MOCLDY     0  -6  78 CALM      30.41S
LITCHFIELD     PTCLDY     7   3  85 CALM      30.44R
MAPLE LAKE     MOCLDY     5   2  90 CALM      30.44S
$$
MNZ037-044-045-052-053-021300-
   East Central Minnesota

CITY           SKY/WX    TMP DP  RH WIND       PRES   REMARKS
PRINCETON      MOCLDY     0  -2  92 CALM      30.42S
MORA           PTCLDY    -6  -9  84 CALM      30.43S
CAMBRIDGE      FAIR       1  -6  71 CALM      30.42F
RUSH CITY      MOCLDY     2  -1  88 CALM      30.43S
MOOSE LAKE     MOCLDY     0  -4  85 CALM      30.36F
HINCKLEY       FAIR      -4  -8  84 CALM      30.41S
CLOQUET        PTCLDY     3   1  92 W5        30.34S WCI  -6
MCGREGOR       PTCLDY     1   0  92 CALM      30.36S
$$
MNZ071>073-080-081-089-090-097-098-021300-
   Southwest Minnesota

CITY           SKY/WX    TMP DP  RH WIND       PRES   REMARKS
MONTEVIDEO     PTCLDY     5   1  85 W5        30.46R WCI  -4
GRANITE FALLS  PTCLDY     4   1  86 S3        30.47S
CANBY          MOCLDY     6   2  86 SW6       30.44S WCI  -5
MARSHALL       PTCLDY     3  -6  66 SW6       30.45S WCI  -8
REDWOOD FALLS  PTCLDY     4   1  88 SW5       30.46R WCI  -5
OLIVIA         PTCLDY     1   0  92 SW3       30.45S
PIPESTONE      PTCLDY     0  -4  85 CALM      30.41R
WINDOM         PTCLDY     0  -2  92 CALM      30.44S
WORTHINGTON    MOCLDY     5   0  78 SW3       30.45R
JACKSON        PTCLDY     5   0  78 CALM      30.45R
TRACY          PTCLDY     6   3  85 SW5       30.44F WCI  -2
SLAYTON        MOCLDY     2  -3  82 CALM      30.42S
$$
MNZ065>067-074>077-082>085-091>093-021300-
   South Central Minnesota

CITY           SKY/WX    TMP DP  RH WIND       PRES   REMARKS
MANKATO        PTCLDY     9   5  85 CALM      30.46S
NEW ULM        PTCLDY     1  -2  85 SW5       30.47S WCI  -8
ST JAMES       PTCLDY     7   3  85 SW3       30.48S
FAIRMONT       PTCLDY     3   0  85 W3        30.45R
GLENCOE        MOCLDY     6   4  89 CALM      30.45S
FARIBAULT      PTCLDY     0  -6  78 CALM      30.46S
OWATONNA       MOCLDY     3   0  85 CALM      30.46R
WASECA         MOCLDY    -2  -6  84 CALM      30.48S
ALBERT LEA       N/A      5   1  85 CALM      30.45R
$$
MNZ078>079-086>088-094>096-021300-
   Southeast Minnesota

CITY           SKY/WX    TMP DP  RH WIND       PRES   REMARKS
ROCHESTER      PTCLDY     5   3  91 NW10      30.43R WCI -10
6HR MIN TEMP:   4; 6HR MAX TEMP:  18;

RED WING       PTCLDY     3   0  85 CALM      30.46F
STANTON        PTCLDY     1  -3  80 S3        30.45R
DODGE CENTER   PTCLDY     7   5  92 CALM      30.43R
WINONA         PTCLDY    14  10  85 W5        30.49R WCI   6
AUSTIN         MOCLDY     7   3  85 CALM      30.45R
PRESTON        PTCLDY     5   3  90 NW7       30.44R WCI  -7
$$
ABBREVIATIONS USED IN REMARKS
   TC - TEMPERATURES IN CELSIUS
  WCI - WIND CHILL INDEX
   HX - HEAT INDEX
  VSB - VISIBILITY
$$



USA.gov is the U.S. government's official web portal to all federal, state and local government web resources and services.